This demonstration page uses our WeatherBlox Daily Observations layout. Learn more.

Left ArrowRight Arrow

Hourly Observations for March 19, 2019

Temp ( °F °C ) Dew Point ( °F °C ) Humidity (%) Winds ( mph kmh ) Pressure ( in mb ) Visibility ( mi km ) Precip ( " mm )
12:52 am 00:52 Cloudy 39 3.9 22 -5.6 50 50 SSW 3 6 30.32 1027 10 16 0.00 0.00
1:52 am 01:52 Cloudy 39 3.9 23 -5 53 53 SSE 5 7 30.31 1027 10 16 0.00 0.00
2:52 am 02:52 Cloudy 37 2.8 24 -4.4 59 59 S 6 9 30.31 1026 10 16 0.00 0.00
3:52 am 03:52 Cloudy 38 3.3 24 -4.4 57 57 SSE 7 11 30.28 1026 10 16 0.00 0.00
4:52 am 04:52 Cloudy 37 2.8 24 -4.4 59 59 SE 6 9 30.28 1026 10 16 0.00 0.00
5:52 am 05:52 Cloudy 36 2.2 24 -4.4 62 62 ESE 6 9 30.28 1025 10 16 0.00 0.00
6:52 am 06:52 Mostly Cloudy 36 2.2 24 -4.4 62 62 SE 3 6 30.28 1025 10 16 0.00 0.00
7:52 am 07:52 Mostly Cloudy 35 1.7 24 -4.4 64 64 SE 7 11 30.28 1026 10 16 0.00 0.00
8:52 am 08:52 Mostly Cloudy 39 3.9 26 -3.3 60 60 SSE 7 11 30.28 1025 10 16 0.00 0.00
9:52 am 09:52 Cloudy 42 5.6 26 -3.3 53 53 S 9 15 30.28 1026 10 16 0.00 0.00
10:31 am 10:31 Cloudy 42 5.6 28 -2.2 58 58 S 10 17 30.30 1026 10 16 0.00 0.00
10:52 am 10:52 Cloudy with Light Rain 41 5 32 0 70 70 S 9 15 30.28 1026 10 16 0.00 0.03
11:10 am 11:10 Cloudy with Light Rain 41 5 32 0 70 70 S 8 13 30.30 1026 10 16 0.00 0.03
11:52 am 11:52 Cloudy with Light Rain 40 4.4 36 2.2 86 86 S 7 11 30.29 1026 7 11 0.01 0.25
12:31 pm 12:31 Cloudy with Light Rain 40 4.4 36 2.2 86 86 SSE 8 13 30.31 1027 4 6 0.01 0.25
12:44 pm 12:44 Cloudy with Light Rain 40 4.4 36 2.2 86 86 SSE 7 11 30.30 1026 5 8 0.02 0.51
12:52 pm 12:52 Cloudy with Light Rain 40 4.4 36 2.2 86 86 SSE 7 11 30.29 1026 5 8 0.03 0.76
1:16 pm 13:16 Cloudy with Light Rain 40 4.4 37 2.8 89 89 SSE 6 9 30.30 1026 7 11 0.01 0.25
1:43 pm 13:43 Cloudy with Light Rain 41 5 37 2.8 86 86 SE 7 11 30.30 1026 4 6 0.02 0.51
1:52 pm 13:52 Cloudy with Light Rain 41 5 37 2.8 86 86 ESE 5 7 30.29 1026 4 6 0.03 0.76
2:01 pm 14:01 Cloudy with Light Rain 41 5 37 2.8 86 86 SE 3 6 30.30 1026 4 6 0.00 0.03
2:52 pm 14:52 Cloudy with Light Rain 41 5 38 3.3 89 89 Calm 30.26 1025 4 6 0.02 0.51
3:17 pm 15:17 Cloudy with Light Rain 42 5.6 39 3.9 89 89 Calm 30.26 1025 5 8 0.01 0.25
3:52 pm 15:52 Cloudy with Light Rain 42 5.6 38 3.3 85 85 N 5 7 30.24 1024 4 6 0.02 0.51
4:52 pm 16:52 Cloudy with Light Rain 41 5 39 3.9 93 93 NNW 5 7 30.24 1024 4 6 0.01 0.25
5:52 pm 17:52 Cloudy with Light Rain 42 5.6 39 3.9 89 89 NNW 5 7 30.22 1024 3 5 0.01 0.25
6:36 pm 18:36 Cloudy with Light Rain 41 5 39 3.9 93 93 NNW 3 6 30.23 1024 3 5 0.00 0.03
6:52 pm 18:52 Cloudy with Light Rain 41 5 39 3.9 93 93 N 3 6 30.22 1023 3 5 0.00 0.03
7:52 pm 19:52 Cloudy with Mist and Fog 40 4.4 38 3.3 93 93 N 5 7 30.23 1024 3 5 0.00 0.03
8:21 pm 20:21 Cloudy with Mist and Fog 41 5 38 3.3 89 89 Calm 30.24 1024 4 6 0.00 0.00
8:46 pm 20:46 Cloudy with Mist and Fog 41 5 37 3 87 87 N 6 9 30.24 1024 6 10 0.00 0.00
8:52 pm 20:52 Cloudy with Mist and Fog 41 5 38 3.3 89 89 N 6 9 30.23 1024 6 10 0.00 0.00
9:52 pm 21:52 Cloudy with Mist and Fog 40 4.4 37 2.8 89 89 Calm 30.23 1024 6 10 0.00 0.00
10:35 pm 22:35 Cloudy with Mist and Fog 39 3.9 36 2.2 89 89 NW 5 7 30.24 1024 6 10 0.00 0.00
10:52 pm 22:52 Cloudy with Mist and Fog 39 3.9 37 2.8 93 93 Calm 30.22 1023 4 6 0.00 0.00
11:52 pm 23:52 Mostly Cloudy with Mist and Fog 37 2.8 35 1.7 93 93 N 3 6 30.22 1023 5 8 0.00 0.00

Powered by AerisWeather